Date_and_time,latitude,longitude,wind_speed,RelWindDirFrom,WindDirFrom,air_pressure,air_temperature,relative_humidity,Temp,platform_speed_wrt_ground,air_pressure_at_mean_sea_level,platform_orientation
2019-12-18 23:40,50.6304533333333,-96.98075,10.8,14.6,186,982.43,-14.1,76,0.41,0.0,1011.63,38.0
2019-12-18 23:50,50.630455,-96.9807516666667,10.0,14.1,185,982.48,-14.1,76,0.42,0.0,1011.68,38.0
2019-12-19 00:00,50.6304566666667,-96.980755,10.7,14.6,190,982.60,-14.2,77,0.42,0.0,1011.82,14.5
2019-12-19 00:00,50.6304566666667,-96.980755,9.8,9.8,192,982.76,-14.2,77,0.42,0.0,1011.98,90.0
2019-12-19 00:10,50.6304583333333,-96.9807566666667,9.8,13.2,195,982.81,-14.2,77,0.42,0.0,1012.04,90.0
2019-12-19 00:20,50.63046,-96.98076,9.2,13.1,190,983.01,-14.3,77,0.42,0.0,1012.26,90.0
2019-12-19 00:30,50.63046,-96.9807616666667,8.1,10.4,189,983.12,-14.4,77,0.42,0.0,1012.38,90.0
2019-12-19 00:40,50.63046,-96.980765,7.5,10.0,186,983.13,-14.5,78,0.43,0.0,1012.39,90.0
2019-12-19 00:50,50.63046,-96.980765,5.6,7.5,191,983.37,-14.6,78,0.43,0.0,1012.65,90.0
2019-12-19 01:00,50.63046,-96.9807633333333,4.6,6.4,195,983.57,-14.6,78,0.43,0.0,1012.87,360.0
2019-12-19 01:10,50.63046,-96.9807633333333,3.4,4.3,187,983.68,-14.7,79,0.43,0.0,1012.99,360.0
2019-12-19 01:20,50.6304616666667,-96.9807633333333,3.3,4.8,198,983.75,-14.7,79,0.43,0.0,1013.06,360.0
2019-12-19 01:30,50.6304616666667,-96.980765,4.2,5.8,200,983.83,-14.6,79,0.42,0.0,1013.14,360.0
2019-12-19 01:40,50.6304733333333,-96.9807883333333,4.3,5.9,200,983.87,-14.5,79,0.43,0.0,1013.18,360.0
2019-12-19 01:50,50.63047,-96.9807766666667,3.9,5.6,201,983.90,-14.4,79,0.43,0.0,1013.21,360.0
2019-12-19 02:00,50.6304666666667,-96.9807716666667,3.6,4.9,210,984.06,-14.3,79,0.44,0.0,1013.36,356.8
2019-12-19 02:10,50.6304683333333,-96.98077,4.0,5.2,205,984.16,-14.2,79,0.46,0.0,1013.46,356.8
2019-12-19 02:20,50.6304683333333,-96.9807683333333,3.8,5.1,218,984.29,-14.0,79,0.46,0.0,1013.59,356.8
2019-12-19 02:30,50.6304666666667,-96.9807683333333,4.2,5.9,222,984.35,-13.8,80,0.47,0.0,1013.65,356.8
2019-12-19 02:40,50.6304633333333,-96.9807583333333,4.1,6.1,231,984.51,-13.5,79,0.47,0.0,1013.81,356.8
2019-12-19 02:50,50.6304633333333,-96.9807616666667,4.4,6.3,235,984.66,-13.2,79,0.46,0.0,1013.94,356.8
2019-12-19 03:00,50.63044,-96.9807466666667,4.0,6.0,249,984.66,-13.0,79,0.46,0.0,1013.94,131.7
2019-12-19 03:10,50.6304583333333,-96.9807566666667,3.3,5.1,255,984.63,-12.8,79,0.46,0.0,1013.89,131.7
2019-12-19 03:20,50.63046,-96.9807533333333,2.8,5.0,286,984.66,-12.4,79,0.46,0.0,1013.90,131.7
2019-12-19 03:30,50.6304616666667,-96.9807566666667,2.8,4.3,293,984.86,-12.0,79,0.46,0.0,1014.08,131.7
2019-12-19 03:40,50.6304933333333,-96.9807866666667,3.2,5.4,307,984.94,-11.6,79,0.46,0.0,1014.13,131.7
2019-12-19 03:50,50.6304566666667,-96.9807733333333,4.5,7.8,312,985.00,-11.2,79,0.48,0.0,1014.16,131.7
2019-12-19 04:00,50.6304516666667,-96.9807733333333,7.4,10.9,327,984.95,-10.5,80,0.48,0.0,1014.06,228.3
2019-12-19 04:10,50.6304483333333,-96.9807716666667,8.9,13.6,324,985.08,-9.9,79,0.48,0.0,1014.15,228.3
2019-12-19 04:20,50.6304533333333,-96.9807766666667,9.0,14.5,325,985.28,-9.4,79,0.48,0.0,1014.32,228.3
2019-12-19 04:30,50.6304566666667,-96.9807716666667,9.0,12.2,326,985.47,-9.0,79,0.47,0.0,1014.48,228.3
2019-12-19 04:40,50.63046,-96.98077,10.9,16.2,332,985.48,-8.9,79,0.48,0.0,1014.46,228.3
2019-12-19 04:50,50.63046,-96.9807666666667,12.0,17.0,333,985.53,-9.0,79,0.48,0.0,1014.51,228.3
2019-12-19 05:00,50.6304566666667,-96.980765,12.5,16.7,342,985.71,-9.1,80,0.48,0.0,1014.69,360.0
2019-12-19 05:10,50.6304566666667,-96.9807633333333,11.0,16.1,338,986.02,-9.2,80,0.49,0.0,1014.99,360.0
2019-12-19 05:20,50.6304566666667,-96.9807616666667,11.5,16.5,336,986.14,-9.3,79,0.50,0.0,1015.10,360.0
2019-12-19 05:30,50.6304566666667,-96.9807616666667,11.6,16.3,341,986.24,-9.4,79,0.49,0.0,1015.18,360.0
2019-12-19 05:40,50.6304566666667,-96.9807616666667,10.0,15.5,340,986.68,-9.5,79,0.49,0.0,1015.63,360.0
2019-12-19 05:50,50.6304583333333,-96.9807616666667,9.9,13.7,338,987.05,-9.6,79,0.48,0.0,1015.97,360.0
2019-12-19 06:00,50.6304566666667,-96.98076,9.5,14.6,338,987.29,-9.8,79,0.48,0.0,1016.19,311.7
2019-12-19 06:10,50.63045,-96.9807333333333,8.2,12.2,335,987.58,-10.1,79,0.48,0.0,1016.48,311.7
2019-12-19 06:20,50.6304466666667,-96.9807433333333,6.3,9.8,326,987.96,-10.3,80,0.48,0.0,1016.86,311.7
2019-12-19 06:30,50.6304616666667,-96.9807816666667,5.7,9.1,324,988.28,-10.4,80,0.49,0.0,1017.19,311.7
2019-12-19 06:40,50.63046,-96.9807733333333,5.1,7.5,320,988.49,-10.4,81,0.49,0.0,1017.41,311.7
2019-12-19 06:50,50.6304583333333,-96.98076,6.2,9.6,323,988.55,-10.3,81,0.49,0.0,1017.47,311.7
2019-12-19 07:00,50.63046,-96.98076,5.7,9.2,317,988.71,-10.4,81,0.50,0.0,1017.64,60.8
2019-12-19 07:10,50.6304566666667,-96.9807633333333,6.6,9.7,328,988.81,-10.3,81,0.51,0.0,1017.75,60.8
2019-12-19 07:20,50.6304583333333,-96.980765,8.4,12.1,343,988.93,-10.1,81,0.50,0.0,1017.88,60.8
2019-12-19 07:30,50.63046,-96.9807666666667,9.0,12.1,350,989.00,-10.0,81,0.49,0.0,1017.95,60.8
2019-12-19 07:40,50.6304616666667,-96.9807666666667,8.1,11.0,345,989.25,-10.0,80,0.49,0.0,1018.21,60.8
2019-12-19 07:50,50.63047,-96.9807616666667,8.6,11.3,346,989.44,-10.0,79,0.49,0.0,1018.41,60.8
2019-12-19 08:00,50.6304683333333,-96.9807633333333,7.6,10.5,344,989.76,-10.1,78,0.49,0.0,1018.76,360.0
2019-12-19 08:10,50.630465,-96.9807616666667,5.9,8.6,335,990.12,-10.1,78,0.49,0.0,1019.14,360.0
2019-12-19 08:20,50.6304633333333,-96.9807666666667,6.3,8.5,345,990.27,-10.1,78,0.49,0.0,1019.30,360.0
2019-12-19 08:30,50.6304866666667,-96.9808266666667,7.4,11.2,344,990.44,-10.1,78,0.50,0.0,1019.47,360.0
2019-12-19 08:40,50.6304716666667,-96.98078,8.5,12.1,344,990.62,-10.1,77,0.49,0.0,1019.66,360.0
2019-12-19 08:50,50.6304683333333,-96.980775,8.1,11.7,345,990.75,-10.1,77,0.49,0.0,1019.79,360.0
2019-12-19 09:00,50.63047,-96.9807733333333,9.8,12.5,1,990.88,-10.1,79,0.49,0.0,1019.92,360.0
2019-12-19 09:10,50.6304666666667,-96.9807716666667,12.8,15.9,18,991.20,-10.6,82,0.49,0.0,1020.28,360.0
2019-12-19 09:20,50.630465,-96.9807683333333,11.5,14.5,15,991.69,-10.9,83,0.49,0.0,1020.79,360.0
2019-12-19 09:30,50.6304583333333,-96.9807533333333,12.3,14.7,18,991.78,-11.0,84,0.50,0.0,1020.89,360.0
2019-12-19 09:40,50.6304583333333,-96.98076,12.5,15.8,14,991.76,-11.0,84,0.50,0.0,1020.87,360.0
2019-12-19 09:50,50.630465,-96.9807616666667,13.0,17.3,3,992.01,-10.9,81,0.51,0.0,1021.12,360.0
2019-12-19 10:00,50.6304566666667,-96.980745,10.5,13.4,359,992.45,-10.9,81,0.51,0.0,1021.57,125.3
2019-12-19 10:10,50.6304533333333,-96.980765,10.5,14.1,359,992.72,-11.1,80,0.51,0.0,1021.87,125.3
2019-12-19 10:20,50.6304633333333,-96.9807583333333,12.5,15.3,3,992.47,-11.2,80,0.50,0.0,1021.62,125.3
2019-12-19 10:30,50.6304616666667,-96.9807566666667,12.2,15.0,3,992.59,-11.4,80,0.51,0.0,1021.75,125.3
2019-12-19 10:40,50.63046,-96.9807583333333,13.2,16.5,4,992.67,-11.5,80,0.50,0.0,1021.84,125.3
2019-12-19 10:50,50.63046,-96.9807633333333,13.3,16.3,360,992.83,-11.7,80,0.50,0.0,1022.01,125.3
2019-12-19 11:00,50.6304533333333,-96.9807683333333,12.0,15.7,359,993.11,-11.8,80,0.50,0.0,1022.33,360.0
2019-12-19 11:10,50.6304483333333,-96.9807616666667,12.4,15.8,358,993.35,-11.9,80,0.50,0.0,1022.60,360.0
2019-12-19 11:20,50.6304516666667,-96.9807633333333,12.5,15.9,1,993.35,-11.9,79,0.49,0.0,1022.61,360.0
2019-12-19 11:30,50.6304533333333,-96.98076,12.3,15.5,4,993.43,-12.0,79,0.49,0.0,1022.70,360.0
2019-12-19 11:40,50.630455,-96.9807566666667,13.9,17.7,9,993.32,-12.2,79,0.49,0.0,1022.59,360.0
2019-12-19 11:50,50.6304533333333,-96.98076,15.8,18.6,10,993.18,-12.4,80,0.50,0.0,1022.46,360.0
2019-12-19 12:00,50.630455,-96.98076,15.5,19.1,12,993.05,-12.5,79,0.50,0.0,1022.34,360.0
2019-12-19 12:10,50.630455,-96.9807616666667,15.6,18.7,11,993.17,-12.6,78,0.50,0.0,1022.48,360.0
2019-12-19 12:20,50.6304683333333,-96.9807766666667,13.7,16.3,359,993.28,-12.8,78,0.50,0.0,1022.61,360.0
2019-12-19 12:30,50.6304633333333,-96.98077,12.0,16.5,360,993.42,-12.9,79,0.49,0.0,1022.76,360.0
2019-12-19 12:40,50.63043,-96.980765,11.4,14.2,356,993.84,-12.9,78,0.49,0.0,1023.21,360.0
2019-12-19 12:50,50.6304566666667,-96.9807733333333,11.3,14.4,10,994.19,-12.9,78,0.52,0.0,1023.58,360.0
2019-12-19 13:00,50.6304583333333,-96.9807683333333,10.0,14.2,2,994.25,-13.0,77,0.55,0.0,1023.65,293.6
2019-12-19 13:10,50.630455,-96.9807683333333,13.2,16.3,14,994.06,-13.1,77,0.54,0.0,1023.46,293.6
2019-12-19 13:20,50.6304533333333,-96.9807683333333,12.9,15.4,11,994.25,-13.3,78,0.55,0.0,1023.68,293.6
2019-12-19 13:30,50.6304533333333,-96.980765,12.2,15.3,6,994.44,-13.4,77,0.56,0.0,1023.88,293.6
2019-12-19 13:40,50.6304533333333,-96.9807666666667,13.0,15.7,10,994.45,-13.4,78,0.56,0.0,1023.91,293.6
2019-12-19 13:50,50.6304533333333,-96.9807683333333,8.7,14.2,354,995.10,-13.6,77,0.55,0.0,1024.59,293.6
2019-12-19 14:00,50.6304533333333,-96.9807666666667,7.8,10.3,353,995.37,-13.7,77,0.55,0.0,1024.88,0.0
2019-12-19 14:10,50.6304533333333,-96.9807666666667,7.6,9.5,357,995.30,-13.7,77,0.55,0.0,1024.82,0.0
2019-12-19 14:20,50.6304533333333,-96.980765,8.6,11.1,356,995.18,-13.8,76,0.54,0.0,1024.71,0.0
2019-12-19 14:30,50.63045,-96.98076,9.2,11.0,358,995.21,-13.9,76,0.53,0.0,1024.75,0.0
2019-12-19 14:40,50.6304483333333,-96.9807666666667,8.1,11.4,355,995.44,-14.0,76,0.53,0.0,1024.99,0.0
2019-12-19 14:50,50.6304483333333,-96.9807683333333,6.9,9.0,348,995.57,-14.1,76,0.53,0.0,1025.14,0.0
2019-12-19 15:00,50.6304466666667,-96.9807683333333,8.0,10.3,353,995.54,-14.1,76,0.53,0.0,1025.12,228.3
2019-12-19 15:10,50.6304466666667,-96.9807683333333,7.9,10.2,351,995.58,-14.2,76,0.53,0.0,1025.18,228.3
2019-12-19 15:20,50.6304483333333,-96.9807666666667,7.7,10.4,354,995.66,-14.3,77,0.53,0.0,1025.26,228.3
2019-12-19 15:30,50.6304483333333,-96.980765,6.7,8.8,351,995.87,-14.3,77,0.53,0.0,1025.48,228.3
2019-12-19 15:40,50.6304483333333,-96.980765,6.5,9.4,346,996.18,-14.3,77,0.53,0.0,1025.81,228.3
2019-12-19 15:50,50.6304183333333,-96.980775,4.8,7.4,334,996.63,-14.3,77,0.53,0.0,1026.28,228.3
2019-12-19 16:00,50.6304416666667,-96.9807766666667,4.2,6.4,335,996.74,-14.3,76,0.52,0.0,1026.39,360.0
2019-12-19 16:10,50.6304466666667,-96.9807766666667,5.2,6.9,351,996.79,-14.2,76,0.52,0.0,1026.44,360.0
2019-12-19 16:20,50.630445,-96.980775,4.8,6.4,349,997.02,-14.2,76,0.52,0.0,1026.69,360.0
2019-12-19 16:30,50.6304516666667,-96.9807816666667,6.8,10.4,352,996.97,-14.1,76,0.53,0.0,1026.64,360.0
2019-12-19 16:40,50.630445,-96.9807683333333,9.5,11.2,359,996.80,-14.2,76,0.53,0.0,1026.47,360.0
2019-12-19 16:50,50.6304433333333,-96.980755,9.4,11.6,9,996.91,-14.2,77,0.53,0.0,1026.58,360.0
2019-12-19 17:00,50.6304633333333,-96.9807833333333,8.5,10.8,7,997.19,-14.2,77,0.53,0.0,1026.88,317.2
2019-12-19 17:10,50.6304366666667,-96.9807533333333,8.1,10.0,13,997.33,-14.0,78,0.53,0.0,1027.01,317.2
2019-12-19 17:20,50.63046,-96.9808166666667,7.8,10.3,9,997.55,-14.0,77,0.53,0.0,1027.24,317.2
2019-12-19 17:30,50.630455,-96.980775,9.8,12.0,14,997.34,-13.9,78,0.53,0.0,1027.02,317.2
2019-12-19 17:40,50.630455,-96.9807683333333,11.1,12.9,19,997.17,-13.9,78,0.55,0.0,1026.85,317.2
2019-12-19 17:50,50.63043,-96.9807833333333,11.3,12.8,17,997.08,-13.9,78,0.56,0.0,1026.76,317.2
2019-12-19 18:00,50.6304583333333,-96.9807666666667,11.3,13.3,14,997.02,-13.9,78,0.56,0.0,1026.69,360.0
2019-12-19 18:10,50.6304516666667,-96.98077,9.1,12.3,11,997.25,-13.8,77,0.57,0.0,1026.91,360.0
2019-12-19 18:20,50.6304266666667,-96.9807666666667,8.0,9.9,17,997.38,-13.5,76,0.57,0.0,1027.03,360.0
2019-12-19 18:30,50.6304483333333,-96.9807583333333,8.8,10.2,19,997.19,-13.5,76,0.57,0.0,1026.84,360.0
2019-12-19 18:40,50.6304466666667,-96.9807583333333,9.4,10.7,27,997.09,-13.6,76,0.57,0.0,1026.74,360.0
2019-12-19 18:50,50.6304483333333,-96.98076,8.3,9.8,22,997.33,-13.2,74,0.56,0.0,1026.97,360.0
2019-12-19 19:00,50.6304466666667,-96.9807633333333,8.3,10.0,19,997.28,-13.5,76,0.56,0.0,1026.92,12.6
2019-12-19 19:10,50.63046,-96.9807583333333,7.8,9.7,14,997.19,-13.8,78,0.56,0.0,1026.84,12.6
2019-12-19 19:20,50.630455,-96.980765,8.7,10.2,19,997.07,-13.8,78,0.56,0.0,1026.71,12.6
2019-12-19 19:30,50.6304533333333,-96.9807683333333,7.5,9.9,17,997.39,-13.9,78,0.56,0.0,1027.05,12.6
2019-12-19 19:40,50.63045,-96.9807683333333,7.0,8.5,17,997.45,-13.8,78,0.56,0.0,1027.10,12.6
2019-12-19 19:50,50.63045,-96.9807683333333,7.5,9.7,11,997.41,-13.8,78,0.56,0.0,1027.07,12.6
2019-12-19 20:00,50.6304516666667,-96.9807583333333,6.5,8.2,3,997.61,-13.7,78,0.57,0.0,1027.26,122.3
2019-12-19 20:10,50.6304516666667,-96.9807616666667,6.8,8.4,7,997.72,-13.7,78,0.57,0.0,1027.36,122.3
2019-12-19 20:20,50.6304516666667,-96.9807616666667,6.3,7.7,14,997.77,-13.6,78,0.57,0.0,1027.40,122.3
2019-12-19 20:30,50.63045,-96.980765,6.7,8.2,19,997.92,-13.4,78,0.57,0.0,1027.55,122.3
2019-12-19 20:40,50.63045,-96.9807666666667,6.9,8.2,23,997.91,-13.4,78,0.57,0.0,1027.52,122.3
2019-12-19 20:50,50.63045,-96.9807683333333,6.9,8.6,17,997.98,-13.4,78,0.57,0.0,1027.61,122.3
2019-12-19 21:00,50.6304483333333,-96.9807933333333,7.1,8.5,25,998.11,-13.4,78,0.58,0.0,1027.76,243.3
2019-12-19 21:10,50.6304466666667,-96.9807833333333,6.7,8.1,21,998.22,-13.4,79,0.58,0.0,1027.88,243.3
2019-12-19 21:20,50.63045,-96.9807783333333,6.8,8.3,23,998.26,-13.4,79,0.58,0.0,1027.91,243.3
2019-12-19 21:30,50.6304333333333,-96.980795,7.7,9.3,28,998.11,-13.4,80,0.58,0.0,1027.76,243.3
2019-12-19 21:40,50.630445,-96.9807833333333,8.9,10.1,31,997.90,-13.5,79,0.58,0.0,1027.55,243.3
2019-12-19 21:50,50.630445,-96.9807766666667,9.8,11.6,33,997.76,-13.5,80,0.58,0.0,1027.40,243.3
2019-12-19 22:00,50.630445,-96.980775,10.2,11.8,33,997.76,-13.5,81,0.58,0.0,1027.39,192.6
2019-12-19 22:10,50.630445,-96.980775,10.6,12.3,33,997.83,-13.4,81,0.58,0.0,1027.46,192.6
2019-12-19 22:20,50.630445,-96.980775,10.4,12.3,36,997.89,-13.3,81,0.58,0.0,1027.50,192.6
2019-12-19 22:30,50.630445,-96.9807733333333,11.3,13.1,37,997.70,-13.2,81,0.58,0.0,1027.30,192.6
2019-12-19 22:40,50.6304433333333,-96.9807716666667,11.3,13.1,41,997.72,-13.2,82,0.59,0.0,1027.32,192.6
2019-12-19 22:50,50.6304433333333,-96.9807683333333,11.0,12.5,45,997.84,-13.0,81,0.59,0.0,1027.43,192.6
2019-12-19 23:00,50.6304516666667,-96.9807566666667,10.5,12.1,52,997.94,-12.9,80,0.59,0.0,1027.53,0.0
2019-12-19 23:10,50.630445,-96.980755,11.5,13.1,52,997.86,-12.8,78,0.59,0.0,1027.45,0.0
2019-12-19 23:20,50.63045,-96.980755,11.5,12.8,53,997.97,-12.8,78,0.59,0.0,1027.56,0.0
2019-12-19 23:30,50.63045,-96.98075,11.4,12.8,51,998.07,-12.8,79,0.59,0.0,1027.66,0.0
2019-12-19 23:40,50.63045,-96.980755,11.5,13.3,51,998.12,-12.8,79,0.59,0.0,1027.72,0.0
